DW9151 Weather Reports


Display with metric or nautical units.
time (UTC)temp
F
wind
direction
speed
MPH
gust
MPH
rain 1hr
in
rain 24hr
in
rain mn
in
humidity
%
barometer
mb
20260903035605 56 0 3.0 7.0 0.00 0.00 0.00 82 1020.1
20260903035106 55 0 5.0 9.0 0.00 0.00 0.00 82 1020.1
20260903034606 55 0 5.0 7.0 0.00 0.00 0.00 83 1020.1
20260903034105 55 0 7.0 9.0 0.00 0.00 0.00 84 1020.1
20260903033605 55 355 1.0 3.0 0.00 0.00 0.00 83 1020.1
20260903033105 55 0 0.0 1.0 0.00 0.00 0.00 83 1020.1
20260903032105 55 0 0.0 2.0 0.00 0.00 0.00 82 1020.1
20260903031605 56 0 2.0 3.0 0.00 0.00 0.00 82 1020.1
20260903031106 56 357 4.0 7.0 0.00 0.00 0.00 82 1020.3
20260903030605 55 0 2.0 5.0 0.00 0.00 0.00 82 1020.2
20260903030106 55 358 4.0 7.0 0.00 0.00 0.00 83 1020.2
20260903025605 54 0 2.0 3.0 0.00 0.00 0.00 85 1020.3
20260903025105 55 353 0.0 2.0 0.00 0.00 0.00 86 1020.2
20260903024606 55 350 3.0 9.0 0.00 0.00 0.00 86 1020.3
20260903024105 55 354 7.0 10.0 0.00 0.00 0.00 86 1020.3
20260903023606 55 0 5.0 12.0 0.00 0.00 0.00 85 1020.3
20260903023105 55 350 6.0 9.0 0.00 0.00 0.00 85 1020.3
20260903022105 55 346 3.0 7.0 0.00 0.00 0.00 85 1020.3
20260903021105 55 0 3.0 6.0 0.00 0.00 0.00 85 1020.3
20260903020606 55 358 3.0 6.0 0.00 0.00 0.00 84 1020.3
20260903020105 55 328 2.0 3.0 0.00 0.00 0.00 84 1020.3
20260903015605 55 350 2.0 5.0 0.00 0.00 0.00 84 1020.3
20260903015106 55 349 3.0 6.0 0.00 0.00 0.00 85 1020.4
20260903014605 55 0 3.0 6.0 0.00 0.00 0.00 85 1020.4
20260903014105 55 358 3.0 5.0 0.00 0.00 0.00 85 1020.5
20260903013606 55 346 3.0 6.0 0.00 0.00 0.00 85 1020.5
20260903013105 55 334 3.0 5.0 0.00 0.00 0.00 85 1020.4
20260903012605 55 354 4.0 7.0 0.00 0.00 0.00 84 1020.4
20260903012105 54 354 3.0 5.0 0.00 0.00 0.00 84 1020.4
20260903011605 54 356 2.0 3.0 0.00 0.00 0.00 84 1020.4
20260903011106 54 353 2.0 3.0 0.00 0.00 0.00 84 1020.4
20260903010605 55 347 1.0 3.0 0.00 0.00 0.00 84 1020.4
20260903005606 55 352 3.0 5.0 0.00 0.00 0.00 84 1020.4
20260903005105 54 347 2.0 3.0 0.00 0.00 0.00 84 1020.4
20260903004605 54 346 1.0 3.0 0.00 0.00 0.00 84 1020.4
20260903004105 54 351 2.0 3.0 0.00 0.00 0.00 84 1020.4
20260903003605 54 312 2.0 3.0 0.00 0.00 0.00 84 1020.4
20260903002606 55 299 0.0 1.0 0.00 0.00 0.00 86 1020.4
20260903001606 55 320 1.0 2.0 0.00 0.00 0.00 86 1020.5
20260903000605 55 328 2.0 3.0 0.00 0.00 0.00 86 1020.5
20260903000105 55 291 2.0 3.0 0.00 0.00 0.00 86 1020.5
20260902235605 55 322 2.0 3.0 0.00 0.00 0.00 86 1020.6
20260902235105 55 316 3.0 3.0 0.00 0.00 0.00 86 1020.6
20260902234605 55 308 3.0 3.0 0.00 0.00 0.00 86 1020.6
20260902234106 55 311 3.0 3.0 0.00 0.00 0.00 86 1020.5
20260902233605 55 301 3.0 3.0 0.00 0.00 0.00 86 1020.6
20260902233105 55 284 3.0 3.0 0.00 0.00 0.00 86 1020.6
20260902232605 55 306 3.0 3.0 0.00 0.00 0.00 86 1020.6
20260902232105 55 308 3.0 3.0 0.00 0.00 0.00 86 1020.6
20260902231605 55 249 2.0 3.0 0.00 0.00 0.00 86 1020.6
20260902231105 55 300 2.0 3.0 0.00 0.00 0.00 86 1020.6
20260902230605 54 306 2.0 3.0 0.00 0.00 0.00 85 1020.7
20260902230105 54 345 0.0 2.0 0.00 0.00 0.00 85 1020.7
20260902225605 54 296 0.0 0.0 0.00 0.00 0.00 85 1020.7
20260902225105 54 330 0.0 0.0 0.00 0.00 0.00 86 1020.6
20260902224605 55 277 0.0 0.0 0.00 0.00 0.00 86 1020.7
20260902224105 55 296 0.0 0.0 0.00 0.00 0.00 86 1020.7
20260902223605 55 314 0.0 2.0 0.00 0.00 0.00 86 1020.6
20260902223105 55 358 0.0 3.0 0.00 0.00 0.00 86 1020.6
20260902222605 55 305 0.0 3.0 0.00 0.00 0.00 85 1020.6
20260902222105 55 324 0.0 1.0 0.00 0.00 0.00 86 1020.5
20260902221605 55 258 1.0 3.0 0.00 0.00 0.00 86 1020.4
20260902220105 56 317 0.0 1.0 0.00 0.00 0.00 86 1020.3
20260902215605 56 296 1.0 3.0 0.00 0.00 0.00 86 1020.2
20260902215105 56 298 1.0 3.0 0.00 0.00 0.00 86 1020.1
20260902214605 56 299 3.0 5.0 0.00 0.00 0.00 86 1020.1
20260902214105 56 318 1.0 5.0 0.00 0.00 0.00 86 1020.1
20260902213605 56 319 2.0 5.0 0.00 0.00 0.00 86 1020.1
20260902213105 56 351 3.0 5.0 0.00 0.00 0.00 86 1020.1
20260902212605 56 347 3.0 5.0 0.00 0.00 0.00 85 1020.1
20260902212105 56 0 3.0 6.0 0.00 0.00 0.00 86 1020.1
20260902211605 56 345 2.0 3.0 0.00 0.00 0.00 86 1020.0
20260902211107 56 342 2.0 5.0 0.00 0.00 0.00 86 1020.1
20260902210605 56 350 2.0 3.0 0.00 0.00 0.00 86 1020.2
20260902210105 56 342 2.0 3.0 0.00 0.00 0.00 86 1020.2
20260902204605 56 353 3.0 3.0 0.00 0.00 0.00 86 1020.1
20260902204106 56 313 1.0 3.0 0.00 0.00 0.00 86 1020.2
20260902203605 56 306 1.0 3.0 0.00 0.00 0.00 86 1020.1
20260902203105 56 233 2.0 3.0 0.00 0.00 0.00 86 1020.0
20260902202605 56 275 1.0 3.0 0.00 0.00 0.00 86 1020.0
20260902201605 56 318 1.0 3.0 0.00 0.00 0.00 86 1020.0
20260902201104 56 288 1.0 3.0 0.00 0.00 0.00 86 1019.9
20260902200605 56 273 1.0 5.0 0.00 0.00 0.00 86 1020.0
20260902195605 56 259 1.0 2.0 0.00 0.00 0.00 86 1020.0
20260902195105 56 270 1.0 3.0 0.00 0.00 0.00 86 1020.0
20260902194105 56 226 2.0 3.0 0.00 0.00 0.00 86 1019.9
20260902193605 56 213 2.0 3.0 0.00 0.00 0.00 86 1019.9
20260902193105 56 198 1.0 2.0 0.00 0.00 0.00 86 1019.9
20260902192604 56 206 0.0 1.0 0.00 0.00 0.00 86 1019.9
20260902192105 56 223 0.0 1.0 0.00 0.00 0.00 86 1019.9
20260902191104 56 206 3.0 3.0 0.00 0.00 0.00 85 1019.7
20260902190604 57 190 0.0 3.0 0.00 0.00 0.00 85 1019.6
20260902190105 57 195 2.0 3.0 0.00 0.00 0.00 85 1019.5
20260902185605 57 196 3.0 6.0 0.00 0.00 0.00 85 1019.4
20260902185104 57 203 0.0 1.0 0.00 0.00 0.00 85 1019.5
20260902184605 57 203 0.0 5.0 0.00 0.00 0.00 84 1019.4
20260902184104 57 195 2.0 3.0 0.00 0.00 0.00 84 1019.3
20260902183605 57 194 1.0 3.0 0.00 0.00 0.00 84 1019.3
20260902183107 57 184 5.0 8.0 0.00 0.00 0.00 84 1019.0
20260902182605 57 309 1.0 3.0 0.00 0.00 0.00 84 1019.0
20260902182104 57 315 2.0 3.0 0.00 0.00 0.00 84 1019.0
20260902181104 57 248 2.0 5.0 0.00 0.00 0.00 84 1018.8
20260902175605 58 332 3.0 8.0 0.00 0.00 0.00 84 1018.8
20260902175105 58 354 3.0 6.0 0.00 0.00 0.00 83 1018.9
20260902174605 58 351 3.0 6.0 0.00 0.00 0.00 83 1018.9
20260902174104 58 354 2.0 5.0 0.00 0.00 0.00 84 1018.9
20260902172605 58 351 2.0 5.0 0.00 0.00 0.00 83 1018.7
20260902172105 58 353 2.0 3.0 0.00 0.00 0.00 83 1018.8
20260902171605 58 345 2.0 5.0 0.00 0.00 0.00 84 1018.8
20260902171105 58 21 3.0 5.0 0.00 0.00 0.00 84 1018.8
20260902170605 58 256 3.0 6.0 0.00 0.00 0.00 83 1018.7
20260902170105 58 319 2.0 5.0 0.00 0.00 0.00 84 1018.8
20260902165604 58 230 2.0 5.0 0.00 0.00 0.00 84 1018.8
20260902165104 58 215 3.0 7.0 0.00 0.00 0.00 84 1018.7
20260902164605 58 251 3.0 5.0 0.00 0.00 0.00 84 1018.7
20260902164104 58 172 5.0 6.0 0.00 0.00 0.00 84 1018.6
20260902163604 58 176 3.0 3.0 0.00 0.00 0.00 84 1018.7
20260902163105 58 181 2.0 3.0 0.00 0.00 0.00 84 1018.8
20260902162604 58 175 3.0 5.0 0.00 0.00 0.00 84 1018.8
20260902162105 58 171 3.0 5.0 0.00 0.00 0.00 84 1018.8
20260902161605 58 171 2.0 3.0 0.00 0.00 0.00 83 1018.8
20260902161105 58 170 2.0 3.0 0.00 0.00 0.00 83 1018.8
20260902160605 59 173 3.0 6.0 0.00 0.00 0.00 83 1018.7
20260902160105 59 179 3.0 6.0 0.00 0.00 0.00 83 1018.7
20260902155105 58 200 3.0 6.0 0.00 0.00 0.00 83 1018.8
20260902154604 59 160 2.0 7.0 0.00 0.00 0.00 83 1018.8
20260902154105 59 156 2.0 3.0 0.00 0.00 0.00 83 1018.8
20260902153604 58 152 3.0 7.0 0.00 0.00 0.00 83 1018.9
20260902153105 59 151 5.0 7.0 0.00 0.00 0.00 82 1018.9
20260902151604 59 171 2.0 7.0 0.00 0.00 0.00 81 1019.0
20260902151105 60 172 1.0 3.0 0.00 0.00 0.00 81 1019.1
20260902150605 59 2 5.0 7.0 0.00 0.00 0.00 82 1019.1
20260902150105 59 171 5.0 6.0 0.00 0.00 0.00 81 1019.2
20260902145604 60 160 2.0 12.0 0.00 0.00 0.00 81 1019.2
20260902145104 60 144 5.0 10.0 0.00 0.00 0.00 80 1019.1
20260902144606 60 132 4.0 8.0 0.00 0.00 0.00 81 1019.1
20260902144105 60 190 3.0 6.0 0.00 0.00 0.00 80 1019.1
20260902143605 60 153 6.0 8.0 0.00 0.00 0.00 78 1019.2
20260902143104 61 158 3.0 8.0 0.00 0.00 0.00 80 1019.3
20260902142605 60 197 3.0 8.0 0.00 0.00 0.00 81 1019.3
20260902142104 60 148 5.0 9.0 0.00 0.00 0.00 80 1019.4
20260902141604 60 145 6.0 10.0 0.00 0.00 0.00 80 1019.4
20260902141104 60 157 4.0 6.0 0.00 0.00 0.00 80 1019.5
20260902140605 60 176 4.0 10.0 0.00 0.00 0.00 80 1019.5
20260902140105 61 145 5.0 10.0 0.00 0.00 0.00 79 1019.5
20260902135604 61 2 3.0 7.0 0.00 0.00 0.00 81 1019.5
20260902135105 61 173 6.0 9.0 0.00 0.00 0.00 77 1019.5
20260902133605 62 124 5.0 9.0 0.00 0.00 0.00 79 1019.5
20260902133104 61 165 4.0 7.0 0.00 0.00 0.00 78 1019.5
20260902132604 61 139 5.0 9.0 0.00 0.00 0.00 80 1019.5
20260902131604 61 99 5.0 7.0 0.00 0.00 0.00 79 1019.6
20260902131104 61 143 4.0 7.0 0.00 0.00 0.00 77 1019.6
20260902130604 61 131 5.0 8.0 0.00 0.00 0.00 80 1019.6
20260902130104 61 136 2.0 6.0 0.00 0.00 0.00 80 1019.5
20260902125605 61 150 4.0 8.0 0.00 0.00 0.00 77 1019.6
20260902125105 61 156 5.0 9.0 0.00 0.00 0.00 80 1019.7
20260902124605 61 139 3.0 12.0 0.00 0.00 0.00 81 1019.6
20260902124105 61 142 3.0 9.0 0.00 0.00 0.00 79 1019.7
20260902123604 61 134 5.0 8.0 0.00 0.00 0.00 77 1019.7
20260902122604 63 131 3.0 9.0 0.00 0.00 0.00 79 1019.8
20260902122104 62 135 3.0 8.0 0.00 0.00 0.00 80 1019.7
20260902121605 61 13 5.0 7.0 0.00 0.00 0.00 80 1019.8
20260902121104 62 4 4.0 7.0 0.00 0.00 0.00 77 1019.9
20260902120104 61 171 3.0 7.0 0.00 0.00 0.00 79 1020.0
20260902115604 61 131 2.0 9.0 0.00 0.00 0.00 80 1019.9
20260902115104 61 144 5.0 7.0 0.00 0.00 0.00 80 1020.0
20260902114604 61 141 4.0 8.0 0.00 0.00 0.00 82 1020.0
20260902114104 61 158 3.0 7.0 0.00 0.00 0.00 80 1019.9
20260902113604 60 157 2.0 6.0 0.00 0.00 0.00 82 1019.9
20260902113105 61 139 6.0 10.0 0.00 0.00 0.00 77 1020.0
20260902112604 62 135 3.0 7.0 0.00 0.00 0.00 80 1019.9
20260902112105 62 128 6.0 12.0 0.00 0.00 0.00 81 1019.9
20260902111604 62 124 5.0 10.0 0.00 0.00 0.00 82 1020.0
20260902111104 60 133 4.0 7.0 0.00 0.00 0.00 81 1020.1
20260902110604 59 126 4.0 9.0 0.00 0.00 0.00 82 1020.1
20260902110105 59 148 2.0 6.0 0.00 0.00 0.00 83 1020.2
20260902105604 60 146 6.0 9.0 0.00 0.00 0.00 79 1020.2
20260902105104 62 132 3.0 10.0 0.00 0.00 0.00 79 1020.3
20260902104604 62 138 4.0 8.0 0.00 0.00 0.00 80 1020.2
20260902104104 62 136 3.0 10.0 0.00 0.00 0.00 82 1020.3
20260902103604 62 134 3.0 9.0 0.00 0.00 0.00 82 1020.4
20260902103104 61 69 5.0 12.0 0.00 0.00 0.00 82 1020.5
20260902102606 61 147 4.0 9.0 0.00 0.00 0.00 83 1020.5
20260902102106 61 137 5.0 9.0 0.00 0.00 0.00 82 1020.5
20260902101606 61 131 2.0 7.0 0.00 0.00 0.00 81 1020.6
20260902101105 59 127 2.0 10.0 0.00 0.00 0.00 83 1020.6
20260902100606 59 139 5.0 9.0 0.00 0.00 0.00 84 1020.5
20260902100106 58 132 5.0 8.0 0.00 0.00 0.00 83 1020.5
20260902095606 58 134 7.0 12.0 0.00 0.00 0.00 82 1020.4
20260902095106 59 145 4.0 8.0 0.00 0.00 0.00 81 1020.3
20260902094606 60 136 4.0 12.0 0.00 0.00 0.00 80 1020.4
20260902093605 62 146 3.0 10.0 0.00 0.00 0.00 79 1020.4
20260902092606 63 138 4.0 8.0 0.00 0.00 0.00 77 1020.5
20260902092105 63 137 5.0 8.0 0.00 0.00 0.00 74 1020.6
20260902091606 63 140 2.0 7.0 0.00 0.00 0.00 77 1020.5
20260902090605 63 134 3.0 6.0 0.00 0.00 0.00 76 1020.4
20260902090106 63 136 2.0 7.0 0.00 0.00 0.00 78 1020.4
20260902085606 63 134 3.0 7.0 0.00 0.00 0.00 76 1020.4
20260902085105 63 141 5.0 8.0 0.00 0.00 0.00 74 1020.3
20260902084106 61 137 2.0 5.0 0.00 0.00 0.00 79 1020.3
20260902083606 60 129 3.0 6.0 0.00 0.00 0.00 79 1020.3
20260902083106 60 127 3.0 7.0 0.00 0.00 0.00 79 1020.3
20260902082606 60 120 3.0 10.0 0.00 0.00 0.00 78 1020.2
20260902082106 61 132 3.0 7.0 0.00 0.00 0.00 80 1020.2
20260902081606 61 129 5.0 9.0 0.00 0.00 0.00 77 1020.1
20260902081105 62 146 4.0 9.0 0.00 0.00 0.00 76 1020.2
20260902080605 62 153 3.0 7.0 0.00 0.00 0.00 76 1020.1
20260902075606 63 154 2.0 7.0 0.00 0.00 0.00 76 1020.0
20260902074606 62 147 1.0 3.0 0.00 0.00 0.00 76 1019.9
20260902074106 62 141 3.0 5.0 0.00 0.00 0.00 76 1019.8
20260902073606 63 136 2.0 5.0 0.00 0.00 0.00 75 1019.9
20260902073105 62 129 2.0 3.0 0.00 0.00 0.00 75 1019.8
20260902072606 61 128 1.0 3.0 0.00 0.00 0.00 78 1019.8
20260902072105 61 104 1.0 6.0 0.00 0.00 0.00 79 1019.8
20260902071606 60 101 2.0 3.0 0.00 0.00 0.00 76 1019.7
20260902071105 61 97 2.0 5.0 0.00 0.00 0.00 76 1019.7
20260902070106 61 330 1.0 3.0 0.00 0.00 0.00 76 1019.7
20260902065606 61 356 1.0 3.0 0.00 0.00 0.00 78 1019.6
20260902065105 61 353 2.0 3.0 0.00 0.00 0.00 76 1019.7
20260902064606 61 352 1.0 3.0 0.00 0.00 0.00 77 1019.7
20260902064105 61 348 0.0 3.0 0.00 0.00 0.00 78 1019.7
20260902063605 60 3 0.0 2.0 0.00 0.00 0.00 79 1019.7
20260902063106 60 353 0.0 0.0 0.00 0.00 0.00 77 1019.8
20260902062606 60 358 0.0 1.0 0.00 0.00 0.00 80 1019.9
20260902062105 59 355 1.0 2.0 0.00 0.00 0.00 81 1019.9
20260902061606 58 353 1.0 3.0 0.00 0.00 0.00 81 1020.0
20260902061105 58 346 0.0 2.0 0.00 0.00 0.00 82 1020.0
20260902060605 57 350 1.0 3.0 0.00 0.00 0.00 82 1020.0
20260902060106 57 354 1.0 3.0 0.00 0.00 0.00 81 1020.0
20260902055107 56 352 1.0 2.0 0.00 0.00 0.00 82 1020.0
20260902054606 56 348 1.0 2.0 0.00 0.00 0.00 81 1019.9
20260902054105 57 352 0.0 2.0 0.00 0.00 0.00 82 1019.9
20260902053106 55 349 0.0 1.0 0.00 0.00 0.00 83 1019.8
20260902052605 54 354 0.0 1.0 0.00 0.00 0.00 85 1019.8
20260902052106 54 357 1.0 3.0 0.00 0.00 0.00 85 1019.7
20260902051606 53 355 0.0 3.0 0.00 0.00 0.00 85 1019.7
20260902051106 53 358 0.0 0.0 0.00 0.00 0.00 85 1019.7
20260902050606 53 357 0.0 1.0 0.00 0.00 0.00 86 1019.6
20260902050106 53 356 0.0 1.0 0.00 0.00 0.00 86 1019.6
20260902045605 53 347 1.0 3.0 0.00 0.00 0.00 86 1019.7
20260902045105 54 0 0.0 1.0 0.00 0.00 0.00 85 1019.7
20260902044606 53 342 1.0 2.0 0.00 0.00 0.00 85 1019.6
20260902043605 53 0 1.0 3.0 0.00 0.00 0.00 85 1019.7
20260902043105 53 0 2.0 3.0 0.00 0.00 0.00 85 1019.7
20260902042605 53 0 3.0 3.0 0.00 0.00 0.00 85 1019.7
20260902042105 53 0 3.0 5.0 0.00 0.00 0.00 85 1019.8
20260902040605 53 351 2.0 5.0 0.00 0.00 0.00 84 1019.7
20260902040105 53 0 3.0 5.0 0.00 0.00 0.00 85 1019.7